Location: Washington
(38.8950°N, 77.0370°W)
Time: 17:48:04
(UTC-04:00)

ISS - All Passes

Search period start: 31 May 2016 00:00
Search period end: 10 June 2016 00:00
Orbit: 402 x 404 km, 51.6° (Epoch: 31 May)

Date Brightness Start Highest point End Pass type
(mag) Time Alt. Az. Time Alt. Az. Time Alt. Az.
31 May - 02:04:03 10° NNW 02:06:37 21° NNE 02:09:11 10° ENE visible
31 May - 03:40:04 10° WNW 03:43:15 53° SW 03:46:26 10° SE visible
31 May - 20:18:21 10° SW 20:21:37 89° NW 20:24:53 10° NE daylight
31 May - 21:56:18 10° WNW 21:58:27 16° NNW 22:00:36 10° NNE visible
01 Jun - 01:11:38 10° NNW 01:13:36 15° NNE 01:15:33 10° ENE visible
01 Jun - 02:47:15 10° NW 02:50:31 74° NE 02:53:46 10° ESE visible
01 Jun - 04:25:58 10° WSW 04:26:30 10° SW 04:27:03 10° SW night (unlit)
01 Jun - 19:25:46 10° SSW 19:28:53 43° SE 19:32:00 10° ENE daylight
01 Jun - 21:02:44 10° W 21:05:26 23° NNW 21:08:08 10° NNE visible
02 Jun - 00:19:20 10° N 00:20:30 11° NNE 00:21:41 10° NE visible
02 Jun - 01:54:35 10° NW 01:57:40 38° NNE 02:00:44 10° ESE visible
02 Jun - 03:31:25 10° W 03:33:55 21° SW 03:36:26 10° S night (unlit)
02 Jun - 18:33:41 10° S 18:36:12 21° SE 18:38:46 10° E daylight
02 Jun - 20:09:25 10° WSW 20:12:30 37° NNW 20:15:35 10° NE daylight
02 Jun - 21:48:30 10° NW 21:49:40 11° NNW 21:50:49 10° N visible
03 Jun - 01:02:00 10° NNW 01:04:43 23° NNE 01:07:25 10° E visible
03 Jun - 02:38:09 10° WNW 02:41:16 42° SW 02:44:21 10° SSE night (unlit)
03 Jun - 17:42:55 10° SE 17:43:38 11° SE 17:44:20 10° ESE daylight
03 Jun - 19:16:22 10° WSW 19:19:37 72° NW 19:22:53 10° NE daylight
03 Jun - 20:54:35 10° WNW 20:56:32 15° NNW 20:58:30 10° NNE visible
04 Jun - 00:09:31 10° NNW 00:11:41 16° NNE 00:13:50 10° ENE visible
04 Jun - 01:45:14 10° NW 01:48:31 90° SE 01:51:46 10° SE visible
04 Jun - 18:23:38 10° SW 18:26:49 54° SE 18:30:01 10° ENE daylight
04 Jun - 20:00:54 10° WNW 20:03:27 21° NNW 20:06:01 10° NNE daylight
04 Jun - 23:17:07 10° N 23:18:33 12° NNE 23:19:59 10° NE visible
05 Jun - 00:52:29 10° NW 00:55:39 45° NE 00:58:47 10° ESE visible
05 Jun - 02:29:37 10° W 02:31:50 17° SW 02:34:02 10° S night (unlit)
05 Jun - 17:31:20 10° SSW 17:34:06 26° SE 17:36:52 10° ENE daylight
05 Jun - 19:07:28 10° W 19:10:27 32° NNW 19:13:26 10° NE daylight
05 Jun - 20:46:49 10° NNW 20:47:41 11° NNW 20:48:33 10° N daylight
05 Jun - 22:25:13 10° N 22:25:22 10° N 22:25:29 10° NNE visible
05 Jun - 23:59:51 10° NNW 00:02:41 26° NNE 00:05:31 10° E visible
06 Jun - 01:36:09 10° WNW 01:39:09 34° SW 01:42:08 10° SSE visible
06 Jun - 16:39:51 10° SSE 16:41:27 13° SE 16:43:02 10° E daylight
06 Jun - 18:14:18 10° WSW 18:17:31 59° NW 18:20:45 10° NE daylight
06 Jun - 19:52:45 10° NW 19:54:30 14° NNW 19:56:15 10° NNE daylight
06 Jun - 23:07:18 10° NNW 23:09:39 18° NNE 23:11:58 10° ENE visible
07 Jun - 00:43:07 10° NW 00:46:23 73° SW 00:49:37 10° SE visible
07 Jun - 17:21:25 10° SW 17:24:39 67° SE 17:27:54 10° NE daylight
07 Jun - 18:58:58 10° WNW 19:01:22 19° NNW 19:03:46 10° NNE daylight
07 Jun - 22:14:49 10° NNW 22:16:29 13° NNE 22:18:09 10° NE visible
07 Jun - 23:50:17 10° NW 23:53:31 55° NE 23:56:42 10° ESE visible
08 Jun - 01:27:49 10° W 01:29:36 14° SW 01:31:23 10° SSW night (unlit)
08 Jun - 16:28:56 10° SSW 16:31:52 31° SE 16:34:49 10° ENE daylight
08 Jun - 18:05:25 10° W 18:08:18 28° NNW 18:11:11 10° NNE daylight
08 Jun - 19:45:08 10° NNW 19:45:36 10° N 19:46:03 10° N daylight
08 Jun - 21:22:33 10° N 21:23:16 11° N 21:23:59 10° NNE visible
08 Jun - 22:57:35 10° NW 23:00:32 30° NNE 23:03:28 10° E visible
09 Jun - 00:34:04 10° WNW 00:36:55 28° SW 00:39:44 10° SSE visible
09 Jun - 15:37:06 10° S 15:39:09 16° SE 15:41:14 10° E daylight
09 Jun - 17:12:08 10° WSW 17:15:18 49° NW 17:18:29 10° NE daylight
09 Jun - 18:50:50 10° NW 18:52:22 13° NNW 18:53:53 10° NNE daylight
09 Jun - 22:04:57 10° NNW 22:07:27 20° NNE 22:09:57 10° ENE visible
09 Jun - 23:40:54 10° WNW 23:44:08 58° SW 23:47:20 10° SE visible
